[[{"header":{"parameterUnit":"m.s-1","parameterCategory":1,"la1":30.2991,"la2":30.254,"lo1":-89.0895,"lo2":-89.0444,"dy":0.0017,"dx":0.0017,"nx":28,"ny":28,"refTime":"2024-03-14T03:00:00:Z","depth":0,"parameterNumber":2,"parameterNumberName":"U-component_of_WINDS"},"data":[0,0,0,0,0,0,0,0,0,0,0,0,0,0,0,0,0,0,0,0,0,0,0,0,0,0,0,0,0,0,0,0,0,0,0,0,0,0,0,0,0,0,0,0,0,0,0,0,0,0,0,0,0,0,0,0,0,0,-4.4921,-4.4921,0,-4.4921,-4.4921,-4.4921,-4.4809,-4.4806,-4.4803,-4.48,-4.4799,-4.4802,-4.4804,0,0,0,0,0,0,0,0,0,0,0,0,0,-4.4826,-4.4828,-4.4921,-4.4921,-4.4921,-4.4921,-4.4921,-4.4921,-4.481,-4.4806,-4.4802,-4.4799,-4.4798,-4.4801,-4.4804,0,0,0,0,0,0,0,0,0,0,0,0,0,-4.4851,-4.4829,-4.4921,-4.4866,-4.4861,-4.4921,-4.4921,-4.4921,-4.481,-4.4806,-4.4801,-4.4797,-4.4797,-4.4801,-4.4805,-4.4918,0,0,-4.4817,-4.4819,0,0,0,0,0,0,0,0,-4.4849,-4.4854,-4.4874,-4.487,-4.4864,-4.486,-4.4886,-4.492,-4.4811,-4.4829,-4.48,-4.4795,-4.4823,-4.4825,-4.4834,-4.4917,-4.4917,-4.4818,-4.482,-4.4822,-4.4823,0,0,0,0,0,0,0,-4.4848,-4.4854,-4.4921,-4.4874,-4.4868,-4.4841,-4.4839,-4.4892,-4.4851,-4.4828,-4.4819,-4.4821,-4.4819,-4.483,-4.4833,-4.4917,-4.4817,-4.4821,-4.4824,-4.4825,-4.5094,-4.5098,0,0,0,0,0,0,-4.4854,-4.4853,-4.4921,-4.4921,-4.4846,-4.4846,-4.4845,-4.4866,-4.485,-4.4843,-4.4825,-4.4816,-4.4826,-4.4829,-4.4833,-4.4963,-4.4822,-4.4825,-4.4828,-4.5089,-4.5095,-4.51,0,0,0,0,0,0,-4.4852,-4.4861,-4.4921,-4.4885,-4.489,-4.4852,-4.4877,-4.4868,-4.4879,-4.4848,-4.484,-4.4844,-4.4822,-4.4827,-4.4897,-4.4961,-4.4827,-4.4831,-4.5083,-4.5091,-4.5097,-4.5225,0,0,0,0,0,0,-4.485,-4.4861,-4.4903,-4.4887,-4.4893,-4.4986,-4.4881,-4.4872,-4.4887,-4.4875,-4.4863,-4.4857,-4.4819,-4.4892,-4.4901,-4.4965,-4.4834,-4.5077,-4.5087,-4.5095,-4.5215,-4.5236,-4.5254,0,0,0,0,0,-4.4847,-4.4939,-4.4906,-4.4915,-4.4945,-4.499,-4.4993,-4.4948,-4.4892,-4.4934,-4.4914,-4.4857,-4.4954,-4.49,-4.491,-4.4975,-4.5073,-4.5084,-4.5094,-4.5207,-4.5232,-4.5253,0,0,0,0,0,0,-4.4963,-4.4936,-4.4899,-4.4988,-4.4993,-4.4971,-4.5022,-4.4976,-4.4996,-4.4984,-4.4927,-4.4926,-4.5005,-4.4997,-4.4938,-4.5084,-4.5003,-4.5016,-4.5085,-4.5109,-4.5128,-4.5127,-4.4837,0,0,0,0,0,-4.5,-4.5039,-4.5013,-4.5094,-4.5098,-4.5061,-4.5079,-4.5044,-4.5045,-4.5046,-4.5031,-4.5035,-4.5066,-4.5087,-4.5114,-4.5214,-4.521,-4.5264,-4.5284,-4.53,-4.5311,-4.5363,-4.5387,-4.5135,-4.5135,-4.5134,0,0,-4.5075,-4.5065,-4.5092,-4.5118,-4.5116,-4.5158,-4.5063,-4.5111,-4.5141,-4.5053,-4.5119,-4.5109,-4.5109,-4.5195,-4.5232,-4.5191,-4.538,-4.5313,-4.5326,-4.5329,-4.5377,-4.5401,-4.5422,-4.5142,-4.5141,-4.5139,0,0,-4.5232,-4.5229,-4.5296,-4.5298,-4.5298,-4.5273,-4.5289,-4.5276,-4.5265,-4.533,-4.5266,-4.5301,-4.5356,-4.5359,-4.5367,-4.5529,-4.5477,-4.554,-4.5639,-4.5691,-4.5711,-4.5728,-4.5785,-4.5806,-4.5551,-4.5552,-4.5552,0,-4.5325,-4.5385,-4.5337,-4.5389,-4.5402,-4.5327,-4.5394,-4.5398,-4.5407,-4.5418,-4.5372,-4.544,-4.5435,-4.552,-4.556,-4.557,-4.5586,-4.5539,-4.5712,-4.5729,-4.5744,-4.5798,-4.5819,-4.5559,-4.5558,-4.5557,-4.5557,0,-4.5499,-4.5542,-4.5597,-4.5608,-4.5627,-4.5688,-4.5648,-4.5674,-4.5638,-4.5618,-4.5686,-4.5677,-4.5701,-4.5719,-4.5685,-4.5801,-4.5775,-4.5722,-4.564,-4.5777,-4.5826,-4.5846,-4.557,-4.5567,-4.5565,-4.5563,0,0,-4.5727,-4.5713,-4.5733,-4.5738,-4.5734,-4.5766,-4.5823,-4.5847,-4.587,-4.588,-4.5926,-4.5975,-4.5926,-4.5936,-4.5901,-4.5947,-4.6075,-4.5888,-4.5887,-4.5922,-4.6202,-4.624,-4.6265,-4.6042,-4.6045,-4.6048,-4.6201,0,-4.5879,-4.5975,-4.5934,-4.6035,-4.6074,-4.6004,-4.6054,-4.6057,-4.604,-4.6071,-4.6052,-4.6088,-4.6021,-4.6026,-4.6069,-4.605,-4.613,-4.6039,-4.6083,-4.6085,-4.6083,-4.6291,-4.6331,-4.6476,-4.622,-4.6223,-4.6226,0,-4.6067,-4.6086,-4.6191,-4.618,-4.6195,-4.6241,-4.626,-4.6291,-4.6293,-4.6277,-4.629,-4.6246,-4.6301,-4.6222,-4.6297,-4.6236,-4.6252,-4.6246,-4.6251,-4.6251,-4.6162,-4.6296,-4.6521,-4.6542,-4.6256,-4.6253,-4.6251,0,-4.6222,-4.6273,-4.6342,-4.6348,-4.6338,-4.6372,-4.637,-4.6368,-4.6385,-4.6402,-4.6413,-4.6437,-4.6449,-4.6468,-4.6431,-4.6377,-4.6512,-4.6429,-4.65,-4.6501,-4.653,-4.6528,-4.6759,-4.6544,-4.6543,-4.6543,-4.6543,0,-4.6394,-4.6461,-4.6412,-4.6454,-4.6527,-4.648,-4.6553,-4.6543,-4.6542,-4.6581,-4.6523,-4.6561,-4.6511,-4.6544,-4.6516,-4.6582,-4.6589,-4.6578,-4.6569,-4.6582,-4.6583,-4.659,-4.6578,-4.6549,-4.6547,-4.6546,-4.6545,0,-4.6578,-4.6548,-4.6618,-4.6604,-4.6602,-4.6656,-4.6644,-4.6682,-4.6663,-4.6713,-4.6722,-4.6691,-4.6727,-4.6693,-4.6728,-4.6709,-4.6798,-4.6775,-4.6797,-4.679,-4.6862,-4.6855,-4.7104,-4.7134,-4.6901,-4.6904,-4.6906,0,-4.6689,-4.6739,-4.673,-4.6753,-4.6754,-4.6791,-4.6808,-4.6765,-4.6786,-4.6794,-4.6832,-4.6863,-4.6886,-4.6947,-4.6928,-4.6954,-4.6931,-4.7016,-4.6934,-4.6946,-4.693,-4.6927,-4.6931,-4.7032,-4.7035,-4.7037,-4.7039,0,-4.6889,-4.6872,-4.69,-4.6924,-4.6947,-4.6964,-4.6975,-4.6997,-4.6952,-4.6979,-4.7016,-4.7034,-4.707,-4.7102,-4.7122,-4.7119,-4.7072,-4.7066,-4.7083,-4.7096,-4.7106,-4.71,-4.684,-4.7059,-4.7057,-4.7056,-4.7055,-4.7054,-4.7038,-4.7079,-4.708,-4.7114,-4.7118,-4.7131,-4.7167,-4.7153,-4.7183,-4.7208,-4.7182,-4.7227,-4.7229,-4.7251,-4.7254,-4.7289,-4.7252,-4.7278,-4.7284,-4.7291,-4.7301,-4.7102,-4.7292,-4.7292,-4.7291,-4.7291,-4.729,0,-4.7233,-4.7231,-4.7263,-4.7282,-4.7309,-4.7264,-4.7275,-4.73,-4.734,-4.7347,-4.7371,-4.7414,-4.7445,-4.7429,-4.7456,-4.7487,-4.7466,-4.7495,-4.7491,-4.7491,-4.7332,-4.7314,-4.7512,-4.7512,-4.7511,-4.7511,-4.7511,-4.7511,-4.7338,-4.7405,-4.7389,-4.7458,-4.7455,-4.7499,-4.7509,-4.7521,-4.7526,-4.7576,-4.7602,-4.7592,-4.7589,-4.7616,-4.7643,-4.7637,-4.7649,-4.7686,-4.7673,-4.7524,-4.7502,-4.7482,-4.7464,-4.769,-4.769,-4.7829,-4.783,-4.7831]},{"header":{"parameterUnit":"m.s-1","parameterCategory":1,"la1":30.2991,"la2":30.254,"lo1":-89.0895,"lo2":-89.0444,"dy":0.0017,"dx":0.0017,"nx":28,"ny":28,"refTime":"2024-03-14T03:00:00:Z","depth":0,"parameterNumber":3,"parameterNumberName":"V-component_of_WINDS"},"data":[0,0,0,0,0,0,0,0,0,0,0,0,0,0,0,0,0,0,0,0,0,0,0,0,0,0,0,0,0,0,0,0,0,0,0,0,0,0,0,0,0,0,0,0,0,0,0,0,0,0,0,0,0,0,0,0,0,0,0.0688,0.0687,0,0.06,0.0599,0.0598,0.0544,0.0544,0.0543,0.0543,0.0452,0.045,0.0448,0,0,0,0,0,0,0,0,0,0,0,0,0,0.0812,0.081,0.0688,0.0687,0.0686,0.06,0.0599,0.0597,0.0544,0.0544,0.0543,0.0543,0.0453,0.0451,0.0448,0,0,0,0,0,0,0,0,0,0,0,0,0,0.0745,0.081,0.0688,0.0649,0.0644,0.06,0.0599,0.0597,0.0544,0.0544,0.0543,0.0543,0.0454,0.0451,0.0448,0.0436,0,0,0.0438,0.0436,0,0,0,0,0,0,0,0,0.0749,0.074,0.0656,0.0651,0.0646,0.0582,0.0609,0.0543,0.0544,0.0582,0.0543,0.0543,0.0496,0.0489,0.0474,0.0431,0.0428,0.0437,0.0435,0.0434,0.0433,0,0,0,0,0,0,0,0.0753,0.0744,0.0653,0.0655,0.0649,0.0636,0.0626,0.0596,0.0542,0.0579,0.0575,0.0565,0.0493,0.0477,0.0471,0.0426,0.0438,0.0435,0.0433,0.0431,0.0372,0.0373,0,0,0,0,0,0,0.0764,0.0748,0.0656,0.065,0.0698,0.0634,0.0623,0.0603,0.0543,0.0533,0.0565,0.0563,0.0483,0.0475,0.0468,0.0451,0.0434,0.0431,0.0429,0.0372,0.0372,0.0373,0,0,0,0,0,0,0.0767,0.0756,0.0659,0.0698,0.0685,0.0633,0.0611,0.0602,0.0585,0.0532,0.0523,0.0558,0.0482,0.0472,0.0445,0.0447,0.043,0.0427,0.0372,0.0372,0.0373,0.0417,0,0,0,0,0,0,0.0771,0.0758,0.0752,0.0698,0.0683,0.0638,0.0611,0.06,0.058,0.0575,0.0523,0.0514,0.0481,0.045,0.0441,0.0442,0.0424,0.0371,0.0372,0.0373,0.0415,0.0419,0.0423,0,0,0,0,0,0.0775,0.0768,0.0752,0.0741,0.0675,0.0638,0.0629,0.0591,0.058,0.0574,0.0541,0.0516,0.0448,0.0447,0.0437,0.0438,0.0371,0.0372,0.0372,0.0414,0.0419,0.0423,0,0,0,0,0,0,0.0822,0.076,0.0742,0.0716,0.0683,0.0629,0.062,0.0597,0.0566,0.0563,0.0517,0.0506,0.0483,0.0457,0.0457,0.0424,0.0407,0.0406,0.0442,0.0446,0.0449,0.0456,0.0421,0,0,0,0,0,0.083,0.0805,0.0751,0.0734,0.0718,0.0673,0.0655,0.0629,0.0592,0.0578,0.0542,0.0508,0.0479,0.0461,0.0431,0.0412,0.04,0.0407,0.0411,0.0414,0.0414,0.0403,0.0406,0.0376,0.0376,0.0376,0,0,0.0845,0.0807,0.0794,0.0743,0.0714,0.069,0.0661,0.0636,0.0618,0.0574,0.0546,0.0519,0.0478,0.0455,0.0443,0.0433,0.042,0.0415,0.0418,0.0416,0.0405,0.0408,0.041,0.0376,0.0376,0.0376,0,0,0.086,0.0828,0.0812,0.0784,0.0741,0.0711,0.0707,0.0657,0.0637,0.0609,0.0576,0.0554,0.0505,0.0478,0.0457,0.0465,0.0442,0.0457,0.0476,0.0467,0.0469,0.0471,0.0475,0.0477,0.0457,0.0457,0.0457,0,0.0883,0.0845,0.0806,0.0783,0.0763,0.0723,0.0706,0.0681,0.063,0.0617,0.0607,0.0546,0.0515,0.0486,0.0489,0.0473,0.0468,0.0463,0.0472,0.0474,0.0475,0.0478,0.048,0.0459,0.0459,0.0459,0.0458,0,0.0878,0.0852,0.0844,0.0797,0.0775,0.0756,0.0715,0.0697,0.0674,0.0646,0.0618,0.058,0.0544,0.0535,0.0511,0.0503,0.0498,0.0481,0.0462,0.0481,0.0483,0.0484,0.0462,0.0462,0.0461,0.046,0,0,0.0918,0.0852,0.0849,0.0829,0.078,0.0759,0.0739,0.0704,0.0691,0.0658,0.0641,0.0601,0.0586,0.0563,0.0536,0.0527,0.0538,0.0511,0.0509,0.0518,0.0529,0.0544,0.0546,0.0523,0.0523,0.0523,0.0533,0,0.0926,0.0888,0.0853,0.0828,0.0805,0.0768,0.0751,0.0719,0.0693,0.067,0.064,0.0614,0.0594,0.0581,0.0571,0.0539,0.054,0.0538,0.0507,0.0506,0.0519,0.0547,0.0561,0.0573,0.0534,0.0534,0.0534,0,0.093,0.09,0.0873,0.0829,0.0818,0.0803,0.0769,0.0747,0.0712,0.0693,0.0669,0.0642,0.062,0.0605,0.0575,0.0574,0.0559,0.0542,0.0542,0.0538,0.0522,0.0544,0.0575,0.0578,0.0535,0.0535,0.0535,0,0.0964,0.0917,0.0895,0.0878,0.0826,0.0816,0.0794,0.0758,0.074,0.0711,0.0699,0.0667,0.065,0.0626,0.0591,0.0583,0.0566,0.0547,0.0551,0.0552,0.0549,0.0549,0.0579,0.0538,0.0538,0.0538,0.0538,0,0.0977,0.0962,0.091,0.0896,0.0879,0.084,0.0825,0.0799,0.0768,0.075,0.0716,0.07,0.0654,0.0633,0.0605,0.0586,0.0578,0.0563,0.0556,0.0567,0.0569,0.0557,0.0555,0.0539,0.0539,0.0539,0.0539,0,0.1011,0.0975,0.095,0.0903,0.0891,0.088,0.084,0.0827,0.0799,0.0777,0.077,0.0727,0.07,0.0663,0.0625,0.0606,0.0591,0.0579,0.0603,0.0599,0.0606,0.0606,0.0629,0.0631,0.0589,0.0589,0.059,0,0.1022,0.101,0.0963,0.0948,0.0928,0.0905,0.0887,0.0848,0.0831,0.0791,0.0783,0.0754,0.0729,0.0688,0.0654,0.0625,0.0613,0.0623,0.0608,0.062,0.0615,0.0616,0.0616,0.0627,0.0627,0.0628,0.0628,0,0.1046,0.1029,0.1004,0.0975,0.0954,0.0929,0.0901,0.0892,0.0848,0.083,0.0803,0.0784,0.0746,0.0718,0.0686,0.0663,0.0639,0.0633,0.0633,0.0644,0.0659,0.0652,0.0614,0.0633,0.0632,0.0632,0.0632,0.0632,0.1069,0.1057,0.1023,0.0997,0.0974,0.095,0.0935,0.0907,0.0884,0.0851,0.083,0.0804,0.0771,0.0725,0.0704,0.0684,0.0674,0.0673,0.0673,0.0673,0.0678,0.0662,0.0677,0.0677,0.0677,0.0677,0.0677,0,0.1092,0.1068,0.1045,0.1009,0.099,0.097,0.0939,0.0924,0.0903,0.0874,0.0851,0.0821,0.0795,0.076,0.0731,0.0722,0.071,0.0716,0.0716,0.0712,0.0687,0.0691,0.0726,0.0726,0.0726,0.0726,0.0726,0.0726,0.1101,0.1081,0.1062,0.1031,0.1007,0.0983,0.0968,0.0946,0.0923,0.0892,0.087,0.0848,0.0817,0.0787,0.0762,0.0752,0.0744,0.0753,0.074,0.0718,0.0713,0.0709,0.0713,0.0751,0.0751,0.0767,0.0767,0.0767]}]]